| time (UTC) | temp F | wind direction | speed knots | gust knots | rain 1hr in | rain 24hr in | rain mn in | humidity % | barometer mb |
| 20260510181505 | 67 | 296 | 10.4 | 17.4 | 0.00 | 0.00 | 0.00 | 100 | 1022.5 |
| 20260510180505 | 67 | 285 | 9.6 | 20.0 | 0.00 | 0.00 | 0.00 | 100 | 1022.6 |
| 20260510180005 | 66 | 323 | 7.8 | 10.4 | 0.00 | 0.00 | 0.00 | 100 | 1022.6 |
| 20260510175004 | 66 | 259 | 5.2 | 10.4 | 0.00 | 0.00 | 0.00 | 100 | 1022.8 |
| 20260510174505 | 66 | 315 | 8.7 | 13.0 | 0.00 | 0.00 | 0.00 | 100 | 1022.8 |
| 20260510173504 | 66 | 311 | 10.4 | 18.2 | 0.00 | 0.00 | 0.00 | 100 | 1022.9 |
| 20260510172005 | 64 | 35 | 6.1 | 13.9 | 0.00 | 0.00 | 0.00 | 100 | 1022.9 |
| 20260510171505 | 65 | 8 | 9.6 | 14.8 | 0.00 | 0.00 | 0.00 | 100 | 1022.8 |
| 20260510171005 | 65 | 14 | 8.7 | 15.6 | 0.00 | 0.00 | 0.00 | 100 | 1022.9 |
| 20260510170004 | 65 | 296 | 13.9 | 17.4 | 0.00 | 0.00 | 0.00 | 100 | 1022.9 |
| 20260510163005 | 64 | 319 | 11.3 | 17.4 | 0.00 | 0.00 | 0.00 | 100 | 1023.1 |
| 20260510162004 | 64 | 340 | 12.2 | 17.4 | 0.00 | 0.00 | 0.00 | 100 | 1022.9 |
| 20260510161505 | 63 | 331 | 8.7 | 13.0 | 0.00 | 0.00 | 0.00 | 100 | 1022.9 |
| 20260510161005 | 63 | 1 | 10.4 | 15.6 | 0.00 | 0.00 | 0.00 | 100 | 1022.8 |
| 20260510160504 | 63 | 15 | 8.7 | 14.8 | 0.00 | 0.00 | 0.00 | 100 | 1022.8 |
| 20260510155004 | 63 | 286 | 10.4 | 14.8 | 0.00 | 0.00 | 0.00 | 100 | 1022.6 |
| 20260510154005 | 63 | 329 | 10.4 | 13.9 | 0.00 | 0.00 | 0.00 | 100 | 1022.5 |
| 20260510152505 | 62 | 355 | 8.7 | 13.0 | 0.00 | 0.00 | 0.00 | 100 | 1022.5 |
| 20260510151005 | 61 | 20 | 10.4 | 15.6 | 0.00 | 0.00 | 0.00 | 100 | 1022.3 |
| 20260510150004 | 62 | 12 | 5.2 | 10.4 | 0.00 | 0.00 | 0.00 | 100 | 1022.4 |
| 20260510145505 | 60 | 311 | 5.2 | 12.2 | 0.00 | 0.00 | 0.00 | 100 | 1022.3 |
| 20260510145005 | 60 | 313 | 9.6 | 12.2 | 0.00 | 0.00 | 0.00 | 100 | 1022.2 |
| 20260510144504 | 61 | 333 | 10.4 | 13.9 | 0.00 | 0.00 | 0.00 | 100 | 1022.2 |
| 20260510144004 | 60 | 346 | 5.2 | 8.7 | 0.00 | 0.00 | 0.00 | 100 | 1022.2 |
| 20260510143505 | 60 | 343 | 4.3 | 10.4 | 0.00 | 0.00 | 0.00 | 100 | 1022.3 |
| 20260510143005 | 60 | 301 | 6.1 | 10.4 | 0.00 | 0.00 | 0.00 | 100 | 1022.3 |
| 20260510142504 | 60 | 297 | 5.2 | 8.7 | 0.00 | 0.00 | 0.00 | 100 | 1022.3 |
| 20260510140505 | 58 | 314 | 5.2 | 6.1 | 0.00 | 0.00 | 0.00 | 100 | 1022.2 |
| 20260510140005 | 57 | 23 | 3.5 | 5.2 | 0.00 | 0.00 | 0.00 | 100 | 1022.1 |
| 20260510134005 | 54 | 27 | 1.7 | 4.3 | 0.00 | 0.00 | 0.00 | 100 | 1022.1 |
| 20260510133504 | 54 | 339 | 2.6 | 5.2 | 0.00 | 0.00 | 0.00 | 100 | 1022.1 |
| 20260510130504 | 52 | 349 | 3.5 | 7.8 | 0.00 | 0.00 | 0.00 | 100 | 1022.0 |
| 20260510125505 | 49 | 330 | 1.7 | 2.6 | 0.00 | 0.00 | 0.00 | 100 | 1021.8 |
| 20260510124504 | 47 | 286 | 0.9 | 1.7 | 0.00 | 0.00 | 0.00 | 100 | 1022.0 |
| 20260510123005 | 45 | 298 | 1.7 | 2.6 | 0.00 | 0.00 | 0.00 | 100 | 1021.8 |
| 20260510122004 | 45 | 292 | 2.6 | 2.6 | 0.00 | 0.00 | 0.00 | 100 | 1021.6 |
| 20260510121004 | 43 | 320 | 1.7 | 2.6 | 0.00 | 0.00 | 0.00 | 100 | 1021.3 |
| 20260510113004 | 39 | 305 | 4.3 | 4.3 | 0.00 | 0.00 | 0.00 | 100 | 1020.8 |
| 20260510111504 | 39 | 321 | 5.2 | 7.8 | 0.00 | 0.00 | 0.00 | 100 | 1020.7 |
| 20260510111005 | 39 | 310 | 6.1 | 7.0 | 0.00 | 0.00 | 0.00 | 100 | 1020.5 |
| 20260510104504 | 39 | 285 | 3.5 | 5.2 | 0.00 | 0.00 | 0.00 | 100 | 1020.5 |
| 20260510103005 | 40 | 304 | 4.3 | 4.3 | 0.00 | 0.00 | 0.00 | 100 | 1020.1 |
| 20260510102005 | 40 | 312 | 4.3 | 7.0 | 0.00 | 0.00 | 0.00 | 100 | 1019.9 |
| 20260510101004 | 41 | 314 | 5.2 | 7.0 | 0.00 | 0.00 | 0.00 | 100 | 1019.9 |
| 20260510095505 | 41 | 320 | 6.1 | 8.7 | 0.00 | 0.00 | 0.00 | 100 | 1019.8 |
| 20260510095005 | 41 | 327 | 6.1 | 10.4 | 0.00 | 0.00 | 0.00 | 100 | 1019.6 |
| 20260510094504 | 41 | 331 | 7.8 | 10.4 | 0.00 | 0.00 | 0.00 | 100 | 1019.7 |
| 20260510093504 | 41 | 318 | 5.2 | 7.0 | 0.00 | 0.00 | 0.00 | 100 | 1019.5 |
| 20260510092504 | 41 | 308 | 4.3 | 8.7 | 0.00 | 0.00 | 0.00 | 100 | 1019.7 |
| 20260510092004 | 40 | 313 | 7.0 | 8.7 | 0.00 | 0.00 | 0.00 | 100 | 1019.6 |
| 20260510091504 | 40 | 319 | 5.2 | 7.8 | 0.00 | 0.00 | 0.00 | 100 | 1019.5 |
| 20260510090504 | 40 | 308 | 2.6 | 2.6 | 0.00 | 0.00 | 0.00 | 100 | 1019.4 |
| 20260510083504 | 41 | 312 | 2.6 | 2.6 | 0.00 | 0.00 | 0.00 | 100 | 1019.3 |
| 20260510083004 | 42 | 301 | 1.7 | 2.6 | 0.00 | 0.00 | 0.00 | 100 | 1019.1 |
| 20260510080004 | 43 | 306 | 1.7 | 2.6 | 0.00 | 0.00 | 0.00 | 100 | 1018.3 |
| 20260510075004 | 43 | 290 | 1.7 | 2.6 | 0.00 | 0.00 | 0.00 | 100 | 1018.2 |
| 20260510074504 | 44 | 291 | 1.7 | 2.6 | 0.00 | 0.00 | 0.00 | 100 | 1018.2 |
| 20260510074004 | 44 | 293 | 2.6 | 2.6 | 0.00 | 0.00 | 0.00 | 100 | 1018.2 |
| 20260510073504 | 44 | 293 | 2.6 | 4.3 | 0.00 | 0.00 | 0.00 | 100 | 1018.2 |
| 20260510072504 | 44 | 319 | 2.6 | 4.3 | 0.00 | 0.00 | 0.00 | 100 | 1018.0 |
| 20260510071004 | 44 | 312 | 3.5 | 4.3 | 0.00 | 0.00 | 0.00 | 100 | 1018.0 |
| 20260510065503 | 45 | 317 | 2.6 | 4.3 | 0.00 | 0.00 | 0.00 | 100 | 1017.7 |
| 20260510065004 | 45 | 315 | 3.5 | 4.3 | 0.00 | 0.00 | 0.00 | 100 | 1017.7 |
| 20260510064004 | 45 | 319 | 4.3 | 5.2 | 0.00 | 0.00 | 0.00 | 100 | 1017.7 |
| 20260510063004 | 45 | 320 | 4.3 | 6.1 | 0.00 | 0.00 | 0.00 | 100 | 1017.5 |
| 20260510062504 | 45 | 317 | 3.5 | 4.3 | 0.00 | 0.00 | 0.00 | 100 | 1017.5 |
| 20260510061504 | 46 | 316 | 2.6 | 4.3 | 0.00 | 0.00 | 0.00 | 100 | 1017.4 |
| 20260510055004 | 46 | 323 | 4.3 | 4.3 | 0.00 | 0.00 | 0.00 | 100 | 1017.1 |
| 20260510053504 | 47 | 318 | 2.6 | 2.6 | 0.00 | 0.00 | 0.00 | 100 | 1017.0 |
| 20260510052504 | 47 | 285 | 2.6 | 2.6 | 0.00 | 0.00 | 0.00 | 100 | 1016.7 |
| 20260510051504 | 47 | 285 | 3.5 | 4.3 | 0.00 | 0.00 | 0.00 | 100 | 1016.6 |
| 20260510051004 | 48 | 293 | 2.6 | 2.6 | 0.00 | 0.00 | 0.00 | 100 | 1016.4 |
| 20260510050504 | 48 | 292 | 2.6 | 2.6 | 0.00 | 0.00 | 0.00 | 100 | 1016.4 |
| 20260510050004 | 48 | 290 | 2.6 | 2.6 | 0.00 | 0.00 | 0.00 | 100 | 1016.4 |
| 20260510045004 | 49 | 298 | 2.6 | 2.6 | 0.00 | 0.00 | 0.00 | 100 | 1016.3 |
| 20260510044504 | 49 | 306 | 2.6 | 2.6 | 0.00 | 0.00 | 0.00 | 100 | 1016.2 |
| 20260510044003 | 49 | 302 | 2.6 | 2.6 | 0.00 | 0.00 | 0.00 | 100 | 1016.0 |
| 20260510041004 | 50 | 282 | 2.6 | 2.6 | 0.00 | 0.00 | 0.00 | 100 | 1015.6 |
| 20260510040006 | 51 | 291 | 2.6 | 4.3 | 0.00 | 0.00 | 0.00 | 100 | 1015.6 |
| 20260510035506 | 52 | 299 | 3.5 | 4.3 | 0.00 | 0.00 | 0.00 | 100 | 1015.5 |
| 20260510035005 | 52 | 302 | 2.6 | 2.6 | 0.00 | 0.00 | 0.00 | 100 | 1015.4 |
| 20260510034505 | 52 | 299 | 2.6 | 2.6 | 0.00 | 0.00 | 0.00 | 100 | 1015.2 |
| 20260510034006 | 52 | 313 | 2.6 | 2.6 | 0.00 | 0.00 | 0.00 | 100 | 1015.2 |
| 20260510031505 | 54 | 319 | 2.6 | 5.2 | 0.00 | 0.00 | 0.00 | 100 | 1014.8 |
| 20260510025505 | 55 | 328 | 2.6 | 2.6 | 0.00 | 0.00 | 0.00 | 100 | 1014.6 |
| 20260510025005 | 56 | 321 | 2.6 | 4.3 | 0.00 | 0.00 | 0.00 | 100 | 1014.5 |
| 20260510024506 | 56 | 318 | 2.6 | 4.3 | 0.00 | 0.00 | 0.00 | 100 | 1014.3 |
| 20260510024006 | 56 | 322 | 2.6 | 4.3 | 0.00 | 0.00 | 0.00 | 100 | 1014.2 |
| 20260510023006 | 57 | 314 | 3.5 | 7.0 | 0.00 | 0.00 | 0.00 | 100 | 1014.1 |
| 20260510022005 | 58 | 322 | 5.2 | 7.8 | 0.00 | 0.00 | 0.00 | 100 | 1013.8 |
| 20260510021506 | 58 | 317 | 5.2 | 8.7 | 0.00 | 0.00 | 0.00 | 100 | 1013.6 |
| 20260510021006 | 58 | 317 | 5.2 | 7.8 | 0.00 | 0.00 | 0.00 | 100 | 1013.6 |
| 20260510013005 | 61 | 304 | 5.2 | 8.7 | 0.00 | 0.00 | 0.00 | 100 | 1012.5 |
| 20260510012005 | 62 | 311 | 7.8 | 10.4 | 0.00 | 0.00 | 0.00 | 100 | 1012.3 |
| 20260510011505 | 63 | 314 | 7.8 | 10.4 | 0.00 | 0.00 | 0.00 | 100 | 1012.1 |
| 20260510011006 | 63 | 319 | 6.1 | 10.4 | 0.00 | 0.00 | 0.00 | 100 | 1011.9 |
| 20260510010006 | 64 | 323 | 6.1 | 10.4 | 0.00 | 0.00 | 0.00 | 100 | 1011.7 |
| 20260510005505 | 64 | 319 | 7.8 | 10.4 | 0.00 | 0.00 | 0.00 | 100 | 1011.9 |
| 20260510005005 | 64 | 315 | 7.8 | 12.2 | 0.00 | 0.00 | 0.00 | 100 | 1011.7 |
| 20260510004005 | 65 | 320 | 8.7 | 12.2 | 0.00 | 0.00 | 0.00 | 100 | 1011.5 |
| 20260510003505 | 65 | 314 | 6.1 | 12.2 | 0.00 | 0.00 | 0.00 | 100 | 1011.3 |
| 20260510002005 | 66 | 319 | 9.6 | 17.4 | 0.00 | 0.00 | 0.00 | 100 | 1011.2 |
| 20260510001505 | 66 | 303 | 12.2 | 17.4 | 0.00 | 0.00 | 0.00 | 100 | 1011.1 |
| 20260510001005 | 67 | 303 | 11.3 | 17.4 | 0.00 | 0.00 | 0.00 | 100 | 1011.0 |
| 20260510000505 | 67 | 313 | 10.4 | 17.4 | 0.00 | 0.00 | 0.00 | 100 | 1010.7 |
| 20260510000005 | 67 | 325 | 13.0 | 20.0 | 0.00 | 0.00 | 0.00 | 100 | 1010.8 |
| 20260509235006 | 67 | 301 | 11.3 | 17.4 | 0.00 | 0.00 | 0.00 | 100 | 1010.7 |
| 20260509234005 | 67 | 317 | 11.3 | 15.6 | 0.00 | 0.00 | 0.00 | 100 | 1010.4 |
| 20260509232505 | 69 | 303 | 13.0 | 20.0 | 0.00 | 0.00 | 0.00 | 100 | 1010.4 |
| 20260509230005 | 70 | 299 | 12.2 | 20.0 | 0.00 | 0.00 | 0.00 | 100 | 1009.8 |
| 20260509225505 | 71 | 306 | 12.2 | 18.2 | 0.00 | 0.00 | 0.00 | 100 | 1009.7 |
| 20260509223505 | 71 | 306 | 15.6 | 22.6 | 0.00 | 0.00 | 0.00 | 100 | 1009.4 |
| 20260509223005 | 72 | 317 | 14.8 | 20.0 | 0.00 | 0.00 | 0.00 | 100 | 1009.4 |
| 20260509221506 | 72 | 313 | 15.6 | 20.0 | 0.00 | 0.00 | 0.00 | 100 | 1009.0 |
| 20260509220005 | 73 | 286 | 10.4 | 17.4 | 0.00 | 0.00 | 0.00 | 100 | 1008.8 |
| 20260509215005 | 73 | 315 | 15.6 | 21.7 | 0.00 | 0.00 | 0.00 | 100 | 1008.8 |
| 20260509214505 | 72 | 286 | 9.6 | 21.7 | 0.00 | 0.00 | 0.00 | 100 | 1008.9 |
| 20260509214006 | 72 | 286 | 19.1 | 26.9 | 0.00 | 0.00 | 0.00 | 100 | 1008.8 |
| 20260509213505 | 72 | 301 | 18.2 | 22.6 | 0.00 | 0.00 | 0.00 | 100 | 1008.9 |
| 20260509213006 | 72 | 271 | 14.8 | 18.2 | 0.00 | 0.00 | 0.00 | 100 | 1008.8 |
| 20260509212005 | 72 | 279 | 13.9 | 17.4 | 0.00 | 0.00 | 0.00 | 100 | 1008.8 |
| 20260509204505 | 70 | 275 | 13.0 | 19.1 | 0.00 | 0.00 | 0.00 | 100 | 1008.7 |
| 20260509204005 | 71 | 257 | 12.2 | 18.2 | 0.00 | 0.00 | 0.00 | 100 | 1008.8 |
| 20260509203505 | 72 | 258 | 14.8 | 24.3 | 0.00 | 0.00 | 0.00 | 100 | 1008.9 |
| 20260509203005 | 72 | 264 | 13.0 | 19.1 | 0.00 | 0.00 | 0.00 | 100 | 1008.8 |
| 20260509202505 | 73 | 257 | 13.9 | 19.1 | 0.00 | 0.00 | 0.00 | 100 | 1008.8 |
| 20260509201505 | 71 | 272 | 13.9 | 20.0 | 0.00 | 0.00 | 0.00 | 100 | 1009.0 |
| 20260509195004 | 67 | 265 | 8.7 | 14.8 | 0.00 | 0.00 | 0.00 | 100 | 1008.8 |
| 20260509194505 | 67 | 270 | 12.2 | 14.8 | 0.00 | 0.00 | 0.00 | 100 | 1008.8 |
| 20260509193005 | 69 | 261 | 12.2 | 17.4 | 0.00 | 0.00 | 0.00 | 100 | 1008.7 |
| 20260509192004 | 69 | 274 | 11.3 | 20.0 | 0.00 | 0.00 | 0.00 | 100 | 1008.7 |
| 20260509191005 | 71 | 277 | 13.0 | 21.7 | 0.00 | 0.00 | 0.00 | 100 | 1008.6 |
| 20260509190006 | 71 | 282 | 18.2 | 25.2 | 0.00 | 0.00 | 0.00 | 100 | 1008.4 |
| 20260509185005 | 71 | 305 | 17.4 | 22.6 | 0.00 | 0.00 | 0.00 | 100 | 1008.1 |
| 20260509184505 | 70 | 277 | 20.9 | 26.9 | 0.00 | 0.00 | 0.00 | 100 | 1008.1 |